Weather History for Blythe, CA

Change the Weather History Date:

Monday, September 2, 2013

  Actual Average Record
Temperature  
Mean Temperature 94 °F -  
Max Temperature 108 °F 102 °F 113 °F (1995)
Min Temperature 80 °F 76 °F 64 °F (2000)
Cooling Degree Days 28    
Growing Degree Days 44 (Base 50)    
Moisture  
Dew Point 65 °F    
Average Humidity 45    
Maximum Humidity 77    
Minimum Humidity 20    
Precipitation  
Precipitation 0.01 in - - ()
Sea Level Pressure  
Sea Level Pressure 29.76 in    
Wind  
Wind Speed 7 mph (SW)    
Max Wind Speed 26 mph    
Max Gust Speed 31 mph    
Visibility 10 miles    
Events Rain , Thunderstorm    
Averages and records for this station are not official NWS values.
T = Trace of Precipitation, MM = Missing Value Source: NWS Daily Summary

Daily Weather History Graph

Daily Weather History Graph

Search for Another Location

Airport:

Trip Planner

Search our weather history database for the weather conditions in past years. The results will help you decide how hot, cold, wet, or windy it might be!

Date:

Astronomy

Sep. 02, 2013 Rise Set
Actual Time 6:13 AM PDT 7:02 PM PDT
Civil Twilight 5:48 AM PDT 7:27 PM PDT
Nautical Twilight 5:18 AM PDT 7:57 PM PDT
Astronomical Twilight 4:47 AM PDT 8:28 PM PDT
Moon 3:39 AM PDT (9/2) 5:15 PM PDT (9/2)
Length of Visible Light 13h 39m
Length of Day
12h 48m
Waning Crescent, 7% of the Moon is Illuminated
Sep 2
Waning Crescent
Sep 5
New
Sep 12
First Quarter
Sep 19
Full
Sep 26
Last Quarter

Hourly Weather History & Observations

Time (PDT) Temp. Heat Index Dew Point Humidity Pressure Visibility Wind Dir Wind Speed Gust Speed Precip Events Conditions
12:52 AM 91.0 °F 92.6 °F 64.0 °F 41% 29.75 in 10.0 mi ESE 3.5 mph - N/A   Clear
1:52 AM 87.1 °F 90.6 °F 68.0 °F 53% 29.75 in 10.0 mi Calm Calm - N/A   Clear
2:52 AM 87.1 °F 88.9 °F 64.9 °F 48% 29.75 in 10.0 mi Calm Calm - N/A   Clear
3:52 AM 86.0 °F 87.6 °F 64.9 °F 49% 29.74 in 10.0 mi North 3.5 mph - N/A   Clear
4:52 AM 84.9 °F 87.6 °F 66.9 °F 55% 29.75 in 10.0 mi North 6.9 mph - N/A   Clear
5:52 AM 84.0 °F 86.5 °F 66.9 °F 56% 29.76 in 10.0 mi NNW 5.8 mph - N/A   Clear
6:52 AM 84.9 °F 86.6 °F 64.9 °F 51% 29.78 in 10.0 mi WNW 4.6 mph - N/A   Clear
7:52 AM 91.9 °F 92.5 °F 62.1 °F 37% 29.80 in 10.0 mi North 5.8 mph - N/A   Clear
8:52 AM 91.0 °F 93.8 °F 66.0 °F 44% 29.82 in 10.0 mi East 4.6 mph - N/A   Clear
9:52 AM 95.0 °F 97.0 °F 64.0 °F 36% 29.82 in 10.0 mi ENE 3.5 mph - N/A   Clear
10:52 AM 98.1 °F 101.2 °F 64.9 °F 34% 29.81 in 10.0 mi Calm Calm - N/A   Clear
11:52 AM 102.9 °F 104.8 °F 62.1 °F 26% 29.79 in 10.0 mi ESE 5.8 mph - N/A   Clear
12:52 PM 105.1 °F 104.4 °F 57.0 °F 20% 29.78 in 10.0 mi SSW 6.9 mph - N/A   Clear
1:52 PM 106.0 °F 106.4 °F 59.0 °F 21% 29.73 in 10.0 mi Variable 5.8 mph - N/A   Clear
2:52 PM 107.1 °F 108.9 °F 60.1 °F 22% 29.69 in 10.0 mi SSE 9.2 mph - N/A   Clear
3:52 PM 107.1 °F 108.1 °F 59.0 °F 21% 29.68 in 10.0 mi SSW 5.8 mph - N/A   Clear
4:39 PM 105.8 °F 107.5 °F 60.8 °F 23% 29.68 in 10.0 mi SSE 8.1 mph - N/A Thunderstorm Clear
4:52 PM 100.9 °F 103.3 °F 63.0 °F 29% 29.67 in 10.0 mi SSE 20.7 mph 26.5 mph N/A Thunderstorm Clear
4:58 PM 98.6 °F 100.0 °F 62.6 °F 30% 29.69 in 10.0 mi SSE 16.1 mph 26.5 mph N/A Thunderstorm Clear
5:21 PM 96.8 °F 99.0 °F 64.4 °F 34% 29.71 in 10.0 mi West 24.2 mph 29.9 mph N/A Thunderstorm Thunderstorm
5:52 PM 97.0 °F 97.8 °F 62.1 °F 31% 29.71 in 10.0 mi South 5.8 mph - N/A Thunderstorm Partly Cloudy
6:23 PM 89.6 °F 92.2 °F 66.2 °F 46% 29.75 in 10.0 mi WSW 20.7 mph 29.9 mph N/A Thunderstorm Overcast
6:42 PM 89.6 °F 92.2 °F 66.2 °F 46% 29.77 in 10.0 mi WSW 23.0 mph 29.9 mph N/A   Mostly Cloudy
6:52 PM 88.0 °F 90.3 °F 66.0 °F 48% 29.77 in 10.0 mi WSW 26.5 mph 31.1 mph N/A   Scattered Clouds
7:03 PM 86.0 °F 88.2 °F 66.2 °F 51% 29.79 in 10.0 mi WSW 18.4 mph 25.3 mph N/A Thunderstorm Scattered Clouds
7:20 PM 84.2 °F 87.3 °F 68.0 °F 58% 29.80 in 10.0 mi WSW 25.3 mph 31.1 mph 0.00 in Rain Light Rain
7:52 PM 81.0 °F 83.8 °F 68.0 °F 65% 29.80 in 10.0 mi West 12.7 mph - 0.01 in Rain Light Rain
8:03 PM 82.4 °F 86.3 °F 69.8 °F 66% 29.82 in 10.0 mi WSW 6.9 mph - 0.00 in Rain , Thunderstorm Light Rain
8:30 PM 84.2 °F 88.4 °F 69.8 °F 62% 29.81 in 10.0 mi Calm Calm - 0.00 in Rain Light Rain
8:52 PM 80.1 °F 83.6 °F 71.1 °F 74% 29.79 in 10.0 mi ENE 9.2 mph 18.4 mph 0.00 in Rain Light Rain
9:52 PM 81.0 °F 85.2 °F 72.0 °F 74% 29.78 in 10.0 mi Calm Calm - 0.00 in   Partly Cloudy
10:52 PM 81.0 °F 85.8 °F 73.0 °F 77% 29.78 in 10.0 mi NNW 5.8 mph - N/A   Clear
11:52 PM 82.0 °F 86.3 °F 71.1 °F 69% 29.78 in 10.0 mi WSW 5.8 mph - N/A   Clear